Location: Banska Bystrica
(0.0000°N, 19.1500°E)
Time: 10:25:21
(UTC+01:00)

Ariane H10+ - Pass Details

Date: 19 February 2019
Orbit: 612 x 36777 km, 3.8° (Epoch: 19 March)

Event Time Altitude Azimuth Distance (km) Brightness Sun altitude
Rises 17:33:18 0° 274° (W) 22,842 11.9 5.9°
Reaches altitude 10° 18:20:17 10° 273° (W) 11,014 10.0 -5.7°
Maximum altitude 18:45:42 81° 186° (S) 1,410 3.8 -11.9°
Enters shadow 18:49:48 15° 99° (E) 2,119 4.2 -12.9°
